Tracking 19817 objects as of 19-Aug-2019
HD Live streaming from Space Station
objects crossing your sky now

CZ-3B R/B

Track CZ-3B R/B now!


NORAD ID: 41022
Int'l Code: 2015-063B
Perigee: 221.5 km
Apogee: 32,321.8 km
Inclination: 26.9 °
Period: 565.1 minutes
Semi major axis: 22642 km
RCS: Unknown
Launch date: November 3, 2015
Source: People's Republic of China (PRC)
Launch site: Xichang Space Center, China (XSC)

Note: This is a ROCKET BODY
aabbcc
Your satellite tracking list
Your tracking list is empty




NASA's NSSDC Master Catalog

Two Line Element Set (TLE):
1 41022U 15063B   19230.92858068 +.00007299 +00000-0 +77396-3 0  9997
2 41022 026.8948 099.2267 7088461 008.9674 359.0828 02.54807207032770
Source of the keplerian elements: AFSPC